Starlink 30467

operational
NORAD ID: 57895 Int'l Des: 2023-146 Owner: SPXS Country: US Constellation: starlink
LEOCIRCULAR

Über Starlink 30467

Beschreibung wird geladen...

Live-Position

3D-Globus wird geladen...

Nächste Überflüge

Höhenverlauf

Altitude vs Time

uPlot chart will show altitude changes over time

Zweizeiliger Elementsatz

1 57895U 23146E 26035.57978690 .00000920 00000-0 83144-4 0 9992
2 57895 43.0016 133.4291 0001074 267.9212 92.1507 15.02538752132080
Epoch: 4. Feb. 2026 • Age: 18 hours

Aktueller Status

Höhe 559.0 km
Geschwindigkeit 7.59 km/s
Subsatellitenpunkt 22.44°N, 94.15°W
Startdatum 20. Sept. 2023
Alter 2.3 years
Typ internet

Technische Details

Klassifizierung Payload
Masse 730.00 kg
Trockenmasse 700.00 kg
Gesamtmasse 730.00 kg
Länge 0.30 m
Durchmesser 4.10 m
Spannweite 29.00 m
Form Box + pan
Hersteller SPXS
Bus-Typ Starlink V2M
Phasenstatus In Orbit
Besitzer/Staat SPXS/US

Große Konstellationen

Loading constellations...